Volver al catálogo

SL-12 DEB

LostHEO
NORAD 43528·DEBRIS·🇷🇺 Russia

Lanzado Mar 1, 2010 desde Baikonur Cosmodrome

Loading…

Próximos Pases (próximas 24 horas)

TLE

ObsoletoSource: Space-Track

Época: Apr 8, 2023, 09:29 UTC

1 43528U 10007AA  23098.39570962  .00015922  00000-0  11393-1 0  9990
2 43528  64.4557 241.7182 5763796 346.8700   9.9178  4.30845653 74587

Sigue SL-12 DEB en tiempo real con AllMySat

Download on the App Store